Weather in Sukhothai

Thailand     17°00′40″N   99°49′13″E
temp.,
°C
wind,
m/s
gust,
m/s
humid.,
%
clouds,
%
prec.,
mm/h
press.,
hPa
HPBL,
m
18 january, mon
mon1801:00+24e384775 0.0 1016507
04:00+23e4750100 0.0 1016505
07:00+21e2450100 0.0 1018475
10:00+24e334659 0.0 1019979
13:00+27e333529 0.0 10161585
16:00+28e22320 0.0 10131698
19:00+23nw11430 0.0 101324
22:00+22nnw11480 0.0 101523
19 january, tue
tue1901:00+20nnw12550 0.0 101525
04:00+18nne22590 0.0 101425
07:00+16nnw01640 0.0 101523
10:00+23w01420 0.0 1017714
13:00+28s01322 0.0 10141364
16:00+29ese113018 0.0 10101589
19:00+24sse23409 0.0 101127
22:00+22ssw234551 0.0 101331
20 january, wed
wed2001:00+20s224942 0.0 101337
04:00+18ssw12530 0.0 101223
07:00+17nne01580 0.0 101423
10:00+24sse12380 0.0 1016584
13:00+29sse34280 0.0 10121439
16:00+30sse22250 0.0 10091802
19:00+25ese22340 0.0 101024
22:00+23s22381 0.0 101223
21 january, thu
thu2101:00+21w11442 0.0 101223
04:00+19nne11495 0.0 101123
07:00+17n12553 0.0 101223
10:00+25n22380 0.0 1013448
13:00+32se12260 0.0 10101398
16:00+31se23240 0.0 10072064
19:00+26ese22330 0.0 100824
22:00+24sw11360 0.0 101024
22 january, fri
fri2201:00+22wnw12411 0.0 101023
04:00+20n12499 0.0 100923
07:00+19n235335 0.0 101129
10:00+26n22380 0.0 1013399
13:00+33e11280 0.0 10101416
16:00+32se222322 0.0 10072360
19:00+27se222915 0.0 100824
22:00+25ssw22320 0.0 101024